EW6618 Weather Reports


Display with metric or nautical units.
time (UTC)temp
F
wind
direction
speed
MPH
gust
MPH
rain 1hr
in
rain 24hr
in
rain mn
in
humidity
%
barometer
mb
20260903141328 67 210 1.0 3.0 0.00 0.00 0.00 87 1014.2
20260903140326 67 142 0.0 3.0 0.00 0.00 0.00 87 1014.2
20260903135310 67 141 0.0 2.0 0.00 0.00 0.00 87 1014.1
20260903134313 67 155 0.0 0.0 0.00 0.00 0.00 87 1014.1
20260903133241 67 155 0.0 1.0 0.00 0.00 0.00 88 1014.1
20260903132224 67 155 0.0 3.0 0.00 0.00 0.00 87 1014.1
20260903131249 67 169 0.0 4.0 0.00 0.00 0.00 88 1014.1
20260903130224 67 151 1.0 4.0 0.00 0.00 0.00 87 1014.0
20260903125244 67 210 1.0 3.0 0.00 0.00 0.00 88 1014.0
20260903124239 67 207 1.0 3.0 0.00 0.00 0.00 88 1013.9
20260903123231 68 262 1.0 5.0 0.00 0.00 0.00 88 1014.0
20260903122159 68 139 1.0 5.0 0.00 0.00 0.00 88 1013.9
20260903121138 68 131 1.0 3.0 0.00 0.00 0.00 88 1013.9
20260903120117 68 89 1.0 4.0 0.00 0.00 0.00 88 1014.0
20260903115115 68 118 1.0 5.0 0.00 0.00 0.00 88 1014.0
20260903114117 68 99 1.0 5.0 0.00 0.00 0.00 88 1014.1
20260903113046 68 18 1.0 5.0 0.00 0.00 0.00 89 1014.2
20260903112038 68 142 1.0 4.0 0.00 0.00 0.00 88 1014.1
20260903111021 68 135 1.0 6.0 0.00 0.00 0.00 88 1014.1
20260903110041 68 212 1.0 6.0 0.00 0.00 0.00 89 1014.2
20260903103932 68 284 1.0 4.0 0.00 0.00 0.00 89 1014.2
20260903101813 68 15 3.0 6.0 0.00 0.00 0.00 89 1014.3
20260903100745 68 87 3.0 8.0 0.00 0.00 0.00 88 1014.4
20260903095711 68 233 4.0 9.0 0.00 0.00 0.00 88 1014.3
20260903094718 68 217 4.0 9.0 0.00 0.00 0.00 88 1014.4
20260903093658 68 248 5.0 8.0 0.00 0.00 0.00 88 1014.4
20260903092700 68 174 5.0 8.0 0.00 0.00 0.00 87 1014.5
20260903091634 68 222 4.0 10.0 0.00 0.00 0.00 87 1014.5
20260903090610 69 211 5.0 10.0 0.00 0.00 0.00 87 1014.7
20260903085558 68 260 5.0 8.0 0.00 0.00 0.00 87 1014.7
20260903084557 69 250 4.0 7.0 0.00 0.00 0.00 87 1014.8
20260903082414 69 266 4.0 6.0 0.00 0.00 0.00 86 1015.0
20260903081352 69 252 4.0 6.0 0.00 0.00 0.00 86 1014.9
20260903080404 69 264 4.0 6.0 0.00 0.00 0.00 86 1015.1
20260903075337 69 248 4.0 7.0 0.00 0.00 0.00 86 1015.2
20260903074323 69 226 5.0 9.0 0.00 0.00 0.00 86 1015.0
20260903073322 70 266 5.0 9.0 0.00 0.00 0.00 85 1015.0
20260903072306 70 224 5.0 9.0 0.00 0.00 0.00 85 1015.0
20260903071233 70 266 6.0 9.0 0.00 0.00 0.00 84 1015.0
20260903070226 70 281 5.0 9.0 0.00 0.00 0.00 85 1015.0
20260903065233 69 226 5.0 9.0 0.00 0.00 0.00 85 1014.9
20260903063042 69 245 5.0 9.0 0.00 0.00 0.00 85 1014.9
20260903062028 69 249 5.0 11.0 0.00 0.00 0.00 86 1014.9
20260903061017 70 274 6.0 11.0 0.00 0.00 0.00 86 1014.9
20260903060032 70 221 7.0 11.0 0.00 0.00 0.00 86 1014.8
20260903055033 70 292 8.0 12.0 0.00 0.00 0.00 85 1014.7
20260903054028 70 289 8.0 12.0 0.00 0.00 0.00 84 1014.7
20260903053022 70 321 8.0 14.0 0.00 0.00 0.00 84 1014.7
20260903050857 71 281 9.0 13.0 0.00 0.00 0.00 82 1014.7
20260903042533 72 244 6.0 10.0 0.00 0.00 0.00 79 1014.5
20260903041504 71 290 7.0 11.0 0.00 0.00 0.00 79 1014.4
20260903033107 71 169 10.0 16.0 0.00 0.00 0.00 82 1014.3
20260903032035 71 293 9.0 13.0 0.00 0.00 0.00 82 1014.3
20260903031002 71 86 9.0 13.0 0.00 0.00 0.00 81 1014.3
20260903030003 71 134 8.0 11.0 0.00 0.00 0.00 80 1014.2
20260903024959 71 254 7.0 11.0 0.00 0.00 0.00 79 1014.3
20260903022950 71 259 8.0 13.0 0.00 0.00 0.00 77 1014.3
20260903015841 72 245 8.0 13.0 0.00 0.00 0.00 74 1014.3
20260903014853 72 217 8.0 14.0 0.00 0.00 0.00 72 1014.3
20260903013830 72 293 8.0 14.0 0.00 0.00 0.00 73 1014.4
20260903011712 72 253 8.0 14.0 0.00 0.00 0.00 76 1014.5
20260903004511 73 234 9.0 13.0 0.00 0.00 0.00 78 1014.5
20260903003533 73 245 9.0 14.0 0.00 0.00 0.00 77 1014.6
20260903002534 73 252 9.0 14.0 0.00 0.00 0.00 76 1014.6
20260903001554 73 303 9.0 14.0 0.00 0.00 0.00 77 1014.6
20260903000454 73 259 10.0 14.0 0.00 0.00 0.00 77 1014.7
20260902232254 74 337 9.0 14.0 0.00 0.00 0.00 75 1014.9
20260902224942 75 292 8.0 12.0 0.00 0.00 0.00 74 1015.2
20260902222820 76 264 7.0 10.0 0.00 0.00 0.00 70 1015.3
20260902220609 76 100 7.0 10.0 0.00 0.00 0.00 68 1015.5
20260902215615 77 278 7.0 10.0 0.00 0.00 0.00 69 1015.7
20260902214549 77 205 6.0 9.0 0.00 0.00 0.00 67 1015.7
20260902213610 77 257 6.0 9.0 0.00 0.00 0.00 64 1015.8
20260902211423 76 210 5.0 8.0 0.00 0.00 0.00 68 1016.1
20260902203046 76 221 6.0 11.0 0.00 0.00 0.00 69 1016.3
20260902200921 75 241 6.0 10.0 0.00 0.00 0.00 70 1016.4
20260902195853 75 249 6.0 10.0 0.00 0.00 0.00 71 1016.5
20260902194905 75 226 6.0 10.0 0.00 0.00 0.00 70 1016.5
20260902192739 75 274 6.0 9.0 0.00 0.00 0.00 69 1016.6
20260902190627 75 19 6.0 10.0 0.00 0.00 0.00 69 1016.8
20260902185619 75 3 6.0 9.0 0.00 0.00 0.00 69 1016.9
20260902184546 75 347 5.0 8.0 0.00 0.00 0.00 70 1016.9
20260902182338 75 170 6.0 9.0 0.00 0.00 0.00 70 1017.1
20260902181358 76 43 4.0 9.0 0.00 0.00 0.00 70 1016.9
20260902174159 75 271 4.0 8.0 0.00 0.00 0.00 71 1016.8
20260902173140 75 238 3.0 6.0 0.00 0.00 0.00 72 1016.9
20260902172139 75 127 3.0 6.0 0.00 0.00 0.00 72 1016.8
20260902165939 74 200 2.0 6.0 0.00 0.00 0.00 73 1016.7
20260902164927 74 235 1.0 6.0 0.00 0.00 0.00 74 1016.5
20260902161748 73 244 2.0 4.0 0.00 0.00 0.00 74 1016.6
20260902160720 73 11 1.0 4.0 0.00 0.00 0.00 75 1016.6
20260902154623 72 234 1.0 3.0 0.00 0.00 0.00 76 1016.5
20260902153643 72 153 0.0 3.0 0.00 0.00 0.00 77 1016.5
20260902151611 70 119 1.0 3.0 0.00 0.00 0.00 79 1016.4
20260902144331 68 97 0.0 2.0 0.00 0.00 0.00 83 1016.4
20260902142306 65 70 0.0 2.0 0.00 0.00 0.00 85 1016.4